Погода в Бокове

Россия / Костромская область     58°19′34″N   41°42′35″E
темп.,
°C
ветер,
м/с
пор.,
м/с
влажн.,
%
обл.,
%
осадки,
мм/ч
давл.,
гПа
погр.,
м
14 мая, пт
пт1400:00+13ююз269710 1.9 1017152
03:00+10ююз26967 1.9 1018124
06:00+12ююз269233 0.0 1019187
09:00+16юз36705 0.0 1019702
12:00+20ююз3653100 0.0 10191702
15:00+20ю3553100 0.0 10181685
18:00+19ююз246611 0.1 1017715
21:00+14ю228493 0.5 101726
15 мая, сб
сб1500:00+13вюв3695100 1.6 1015109
03:00+13всв3497100 4.5 1015107
06:00+14юв4119397 0.2 1014325
09:00+18ююв4884100 0.3 1012359
12:00+23ююв4763100 0.0 1012954
15:00+19ссз3388100 4.4 101162
18:00+17ююз41190100 5.4 1009488
21:00+15ю413934 5.7 1009407
16 мая, вс
вс1600:00+15ююз4129694 0.1 1009387
03:00+14ю411974 0.1 1010328
06:00+14ююз4119324 0.0 1010465
09:00+17ююз597699 0.0 1011814
12:00+20ююз6105730 0.0 10111739
15:00+20юз610645 0.3 10101693
18:00+17юз51077100 1.0 10111003
21:00+14ююз412925 1.2 1011414
17 мая, пн
пн1700:00+13юз412925 0.0 1012365
03:00+12ююз39965 0.0 1013214
06:00+13юз38910 0.0 1014273
09:00+18юз46740 0.0 1015687
12:00+22юз45581 0.0 10151383
15:00+23юз345215 0.0 10151634
18:00+22ююз236449 0.0 1015250
21:00+16вюв11815 0.0 101511
18 мая, вт
вт1800:00+14вюв3586100 0.0 101570
03:00+13вюв388998 0.3 1015149
06:00+16вюв4108512 0.0 1014290
09:00+21юв47668 0.0 1013521
12:00+25юв56495 0.0 10131040
15:00+27юв574610 0.0 10121259
18:00+24юв5115812 0.0 1011490
21:00+18юв4126999 0.0 1011222